Home   Weather   Mendoza   Past weeks

Flag for Argentina Past Weather in Mendoza, Mendoza, Argentina — Yesterday and Last 2 Weeks

Now
66 °F

Clear.


Feels Like: 66 °F
Forecast: 46 / 60 °F
Wind: No wind

Location: Mendoza Aerodrome

Current Time: Aug 30, 2016 at 9:43:43 PM

Latest Report: Aug 30, 2016 at 9:00 PM


Visibility: 10 mi

Pressure: 29.86 "Hg (27.30 "Hg at 767m altitude)

Humidity: 26%

Dew Point: 30 °F

Location of MendozaLocation

Past Weather in Mendoza — Graph

°F

Mendoza Temperature Yesterday

Maximum temperature yesterday: 70 °F (at 4:00 PM)
Minimum temperature yesterday: 39 °F (at 8:00 AM)
Average temperature yesterday: 55 °F

High & Low Weather Summary for the Past Weeks

 TemperatureHumidityPressure
High82 °F (Aug 25, 5:00 PM)87% (Aug 21, 8:00 AM)30.57 "Hg (Aug 21, 8:00 AM)
Low36 °F (Aug 21, 8:00 AM)3% (Aug 16, 6:00 AM)29.53 "Hg (Aug 16, 6:00 AM)
Average57 °F38%30.03 "Hg
* Reported Aug 15 8:00 PM — Aug 30 8:00 PM, Mendoza, Weather by CustomWeather, © 2016

Note: Actual official high and low records may vary slightly from our data, if they occured in-between our weather recording intervals... More about our weather records

Advertising

Mendoza Weather History for the Previous 24 Hours

Scroll right to see more
 ConditionsComfort  
Time TempWeatherWind HumidityBarometerVisibility
8:00 PM
Tue, Aug 30
72 °FClear.3 mph17%29.83 "Hg10 mi
7:00 PM77 °FClear.3 mph17%29.80 "Hg10 mi
6:00 PM82 °FSunny.8 mph9%29.80 "Hg10 mi
5:00 PM81 °FSunny.2 mph13%29.83 "Hg10 mi
4:00 PM79 °FSunny.3 mph13%29.83 "Hg10 mi
3:00 PM77 °FSunny.3 mph15%29.86 "Hg10 mi
2:00 PM73 °FSunny.3 mph17%29.92 "Hg10 mi
1:00 PM68 °FSunny.5 mph20%29.95 "Hg10 mi
12:00 PM66 °FSunny.3 mph24%29.98 "Hg10 mi
11:00 AM63 °FSunny.No wind25%30.01 "Hg10 mi
10:00 AM57 °FSunny.No wind39%30.04 "Hg10 mi
9:00 AM50 °FSunny.No wind54%30.01 "Hg10 mi
8:00 AM43 °FSunny.No wind66%30.01 "Hg10 mi
7:00 AM43 °FSunny.3 mph61%30.01 "Hg10 mi
6:00 AM43 °FClear.No wind57%30.01 "Hg10 mi
5:00 AM45 °FClear.3 mph61%30.04 "Hg10 mi
4:00 AM46 °FClear.5 mph57%30.04 "Hg10 mi
3:00 AM46 °FClear.No wind57%30.07 "Hg10 mi
2:00 AM48 °FClear.No wind58%30.09 "Hg10 mi
1:00 AM50 °FClear.3 mph50%30.12 "Hg10 mi
12:00 AM52 °FClear.3 mph50%30.12 "Hg10 mi
11:00 PM
Mon, Aug 29
52 °FClear.3 mph50%30.12 "Hg10 mi
10:00 PM54 °FClear.No wind51%30.12 "Hg10 mi
9:00 PM59 °FClear.3 mph36%30.12 "Hg10 mi
Weather by CustomWeather, © 2016

See weather overviewHow to use our weather pages